Location: Filler
(36.7551°N, 30.4456°E)
Time: 07:12:06
(UTC+00:00)

FENGYUN 3A - Pass Details

Date: 16 September 2024
Orbit: 821 x 835 km, 98.6° (Epoch: 12 October)

Event Time Altitude Azimuth Distance (km) Brightness Sun altitude
Rises 23:51:31 0° 17° (NNE) 3,365 7.5 -42.3°
Reaches altitude 10° 23:53:55 10° 22° (NNE) 2,427 6.7 -42.0°
Enters shadow 23:55:13 18° 26° (NNE) 1,940 6.1 -41.8°
